Regional Weather Roundup
Issued by NWS Upton, NY

Current Version | Previous Version | Text Only | Print | Product List | Glossary On
Versions: 1 2 3 4 5 6 7 8 9 10 11 12 13 14 15 16 17 18 19 20 21 22 23 24 25 26 27 28 29 30 31 32 33 34 35 36 37 38 39 40 41 42 43 44 45 46 47 48 49
614 ASUS41 KOKX 230108 RWROKX REGIONAL WEATHER ROUNDUP NATIONAL WEATHER SERVICE NEW YORK NY 900 PM EDT SAT APR 22 2017 NOTE: "FAIR" INDICATES FEW OR NO CLOUDS BELOW 12,000 FEET WITH NO SIGNIFICANT WEATHER AND/OR OBSTRUCTIONS TO VISIBILITY. NYZ071-072-176-178-NJZ106-104-230200- NEW YORK CITY METRO AREA CITY SKY/WX TMP DP RH WIND PRES REMARKS Central Park CLOUDY 53 46 77 VRB6 29.99S Wall St Helipt CLOUDY 55 42 61 VRB3 29.98R Bronx Bot Gard N/A 52 46 82 N2 29.99R LaGuardia APRT CLOUDY 55 45 68 NW6 29.96S Kennedy INTL CLOUDY 53 51 93 CALM 29.98R Breezy Point N/A 54 N/A N/A N6 N/A Newark/Liberty CLOUDY 55 40 56 NW16G23 29.97R Teterboro CLOUDY 54 41 61 N12 29.97R $$ NYZ177-179-078>081-230200- LONG ISLAND NEW YORK CITY SKY/WX TMP DP RH WIND PRES REMARKS Jones Beach N/A 50 N/A N/A W3 N/A Matinecock PT NOT AVBL Farmingdale CLOUDY 53 49 86 NW3 29.96S MacArthur/ISP CLOUDY 52 51 97 CALM 29.96S Shirley CLOUDY 50 49 96 CALM 29.96S FOG Mt Sinai Harb N/A N/A N/A N/A W2 N/A Westhampton CLOUDY 49 47 93 CALM 29.98R East Hampton CLOUDY 47 46 95 CALM 29.96S Montauk N/A 48 46 93 CALM 29.98R $$ NYZ052-065-067-230200- HUDSON VALLEY CITY SKY/WX TMP DP RH WIND PRES REMARKS White Plains CLOUDY 52 38 58 N12 29.96R Larchmont Harb N/A 52 N/A N/A NW7G14 N/A Croton O-T Hud N/A 52 N/A N/A N3 N/A Newburgh MOCLDY 50 39 66 NW6 30.00R Montgomery CLOUDY 51 37 58 NW7 29.99R Poughkeepsie CLOUDY 51 36 56 N8 29.98R Albany CLOUDY 49 38 65 NW10 30.01R $$ NJZ001-105-106-008-010-013-015-019>022-104-230200- NEW JERSEY CITY SKY/WX TMP DP RH WIND PRES REMARKS Newark/Liberty CLOUDY 55 40 56 NW16G23 29.97R Teterboro CLOUDY 54 41 61 N12 29.97R Caldwell CLOUDY 53 38 56 VRB6 29.99R Somerville CLOUDY 53 39 59 N10 29.97R Linden MOCLDY 54 41 60 N12G17 29.97R Sussex CLOUDY 50 37 61 NW5 30.01R Andover N/A 49 36 61 VRB7 30.00R Trenton CLOUDY 52 48 86 NW3 29.97R Millville CLOUDY 52 52 100 N3 29.98R Atlantic City CLOUDY 53 50 89 CALM 29.97R Wrightstown CLOUDY 52 50 94 W3 29.95R Toms River CLOUDY 51 50 96 CALM 29.98R Belmar CLOUDY 52 50 93 NW3 29.97S $$ PAZ047>061-062-071-230200- EASTERN PENNSYLVANIA CITY SKY/WX TMP DP RH WIND PRES REMARKS Philadelphia CLOUDY 54 49 83 NW7 29.99R Allentown CLOUDY 51 36 56 N14 30.01R Scranton CLOUDY 48 36 63 N8 30.03R $$ CTZ002-004>006-009-010-012-RIZ004-006-007-MAZ004-011-015-230200- SOUTHERN NEW ENGLAND IN CT CITY SKY/WX TMP DP RH WIND PRES REMARKS Bradley INTL CLOUDY 50 39 66 NW6 29.96R Hartford CLOUDY 53 38 56 NW8 29.96R Danbury CLOUDY 50 38 63 N5 29.98S Wtrbury/Oxford MOCLDY 48 36 61 N8 29.98R Bridgeport CLOUDY 54 42 64 N8 29.96R Meriden CLOUDY 53 38 56 NW6 29.97R New Haven CLOUDY 49 46 90 N3 29.96R Chester N/A 50 48 93 CALM 29.96R Groton CLOUDY 49 46 90 CALM 29.96R Wilimantic CLOUDY 52 48 86 CALM 29.96R IN RI CITY SKY/WX TMP DP RH WIND PRES REMARKS Providence CLOUDY 47 44 90 N6 29.97R Block Island CLOUDY 46 45 96 CALM 29.98R Westerly CLOUDY 49 47 93 CALM 29.97R IN MA CITY SKY/WX TMP DP RH WIND PRES REMARKS Boston CLOUDY 43 41 93 NE3 29.97S Worcester CLOUDY 43 40 89 N3 29.95R Westfield CLOUDY 50 43 77 CALM 29.96R Provincetown CLOUDY 42 39 89 N15G21 29.97R Nantucket CLOUDY 44 40 85 N20G28 29.93R $$ ANZ330-335-338-340-345-350-353-355-230200- COASTAL MARINE OBSERVATIONS STATION/POSITION TIME SKY/WX TEMP WIND PRES VSBY WAVE AIR SEA DIR/SP/G HT/PER (UTC) (F) (DEG/KT/KT) (MB) (MI) (FT/S) NY HARB ENTRANCE 2350 50 50 220/ 2/ 4 1015.2 4/11 20 S FIRE ISLAND 2350 48 48 270/ 6/ 8 1014.4 4/12 GREAT SOUTH BAY 0015 52 56 240/ 8/ 8 N/A 23 SSW MONTAUK P 2350 46 45 1014.3 4/10 15 E BARNEGAT LI 0030 50 N/A 4/13 HUDSON CANYON 2350 47 47 10/ 6/ 6 1014.3 5/12 KINGS POINT 0030 51 47 CALM 1014.4 EXECUTION ROCKS NOT AVBL CENTRAL LI SOUND NOT AVBL EASTERN LI SOUND NOT AVBL ROBBINS REEF 0030 55 320/ 4/ 5 1014.8 $$ >>>>>>>>>>>>>>>>>>>>>>>>>>>> KEY <<<<<<<<<<<<<<<<<<<<<<<<<<< > < > SKY/WX - Sky Condition/Present Weather < > TMP - Temperature in Fahrenheit < > DP - Dew Point in Fahrenheit < > RH - Relative Humidity in Percent < > WIND - Direction (from) and Speed in MPH < > PRES - Mean Sea Level Pressure (inches of Hg) < > WCI - Wind Chill Index < > VSB - VISIBILITY IN MILES < > HX - HEAT INDEX < > TC - TEMPERATURE IN CELSIUS < > VRB - VARIABLE WIND DIRECTION < > < >>>>>>>>>>>>>>>>>>>>>>>>>>>> KEY <<<<<<<<<<<<<<<<<<<<<<<<<<<

USA.gov is the U.S. government's official web portal to all federal, state and local government web resources and services.